Flag for U.S.A. Weather past 2 weeks in Jersey City, New Jersey, U.S.A.

Now
37 °F

Partly cloudy.


Feels Like: 30 °F
Forecast: 35 / 48 °F
Wind: 9 mph from Northwest

Location: Newark International Airport

Current Time: Apr 1, 2015 at 2:10:09 AM

Latest Report: Apr 1, 2015 at 12:51 AM


Visibility: 10 mi

Pressure: 29.83 "Hg

Humidity: 82%

Dew point: 32 °F

Location of Jersey CityLocation

Historic Weather in Jersey City — Graph

°F

Jersey City temperature yesterday

Maximum temperature yesterday: 46 °F (at 10:51 AM)
Minimum temperature yesterday: 35 °F (at 7:51 PM)
Average temperature yesterday: 41 °F

Past Weeks' High & Low Weather Summary

 TemperatureHumidityPressure
High63 °F (Mar 26, 7:51 PM)100% (Mar 26, 7:51 AM)30.42 "Hg (Mar 26, 7:51 AM)
Low23 °F (Mar 23, 6:51 AM)15% (Mar 29, 4:51 PM)29.56 "Hg (Mar 17, 10:51 AM)
Average39 °F52%30.04 "Hg
* Reported Mar 17 12:51 AM — Apr 1 12:51 AM, Jersey City, Weather by CustomWeather, © 2015

Note: Actual official high and low records may vary slightly from our data, if they occured in-between our weather recording intervals... More about our weather records

Advertising

Jersey City weather history for previous 24 hours

 ConditionsComfort  
Time TempWeatherWind HumidityBarometerVisibility
12:51 AM
Wed, Apr 1
37 °FPartly cloudy.9 mph82%29.83 "Hg10 mi
11:51 PM
Tue, Mar 31
37 °FPassing clouds.9 mph86%29.82 "Hg10 mi
10:51 PM37 °FMostly cloudy.12 mph89%29.80 "Hg10 mi
9:51 PM36 °FMostly cloudy.8 mph92%29.80 "Hg9 mi
8:51 PM35 °FLight rain. Fog.8 mph92%29.79 "Hg5 mi
7:51 PM35 °FLight rain. Fog.10 mph92%29.78 "Hg4 mi
6:56 PM37 °FLight rain. Mostly cloudy.10 mph87%29.77 "Hg9 mi
5:51 PM38 °FLight rain. Mostly cloudy.14 mph86%29.76 "Hg10 mi
5:02 PM39 °FCloudy.13 mph93%29.75 "Hg10 mi
4:51 PM40 °FLight rain. Mostly cloudy.10 mph89%29.76 "Hg10 mi
3:56 PM39 °FLight rain. Mostly cloudy.14 mph87%29.77 "Hg9 mi
2:51 PM41 °FLight rain. Mostly cloudy.14 mph67%29.76 "Hg10 mi
1:51 PM44 °FLight rain. Mostly cloudy.No wind47%29.78 "Hg10 mi
12:51 PM45 °FMostly cloudy.6 mph40%29.81 "Hg10 mi
11:51 AM46 °FMostly cloudy.14 mph38%29.84 "Hg10 mi
10:51 AM46 °FPartly sunny.6 mph38%29.87 "Hg10 mi
9:51 AM45 °FBroken clouds.9 mph42%29.89 "Hg10 mi
8:51 AM44 °FPartly sunny.9 mph45%29.89 "Hg10 mi
7:51 AM41 °FScattered clouds.6 mph51%29.91 "Hg10 mi
6:51 AM38 °FPassing clouds.9 mph63%29.88 "Hg10 mi
5:51 AM40 °FPassing clouds.7 mph65%29.87 "Hg10 mi
4:51 AM41 °FPassing clouds.6 mph67%29.85 "Hg10 mi
3:51 AM41 °FPassing clouds.9 mph74%29.84 "Hg10 mi
2:51 AM42 °FPartly cloudy.8 mph73%29.85 "Hg10 mi
Weather by CustomWeather, © 2015

See weather overviewHow to use our weather pages